Погода в Фаи

Швейцария     47°25′05″N   6°57′05″E
темп.,
°C
ветер,
м/с
пор.,
м/с
влажн.,
%
обл.,
%
осадки,
мм/ч
давл.,
гПа
погр.,
м
15 июня, вт
вт1523:00+17юв11852 0.0 101911
02:00+15ююв11870 0.0 101911
05:00+14вюв11900 0.0 101811
08:00+18всв12885 0.0 1019128
11:00+22св22765 0.0 1018472
14:00+25св216477 0.0 1018709
17:00+25ссв116476 0.0 1017687
20:00+23ссв008240 0.1 101712
16 июня, ср
ср1623:00+18ююв118793 0.0 101711
02:00+17юв1188100 0.0 101711
05:00+15вюв118790 0.0 101611
08:00+19всв118290 0.0 1016103
11:00+23св227325 0.0 1015434
14:00+26ссв216876 0.1 1013555
17:00+27всв1161100 0.1 1012648
20:00+25юв1177100 0.1 101111
17 июня, чт
чт1723:00+20юв118117 0.0 101211
02:00+18ююв118194 0.0 101311
05:00+17ююв11805 0.0 101311
08:00+21з117895 0.2 101474
11:00+24ссв1170100 0.0 1013465
14:00+26ссв1166100 0.0 1012624
17:00+27св2268100 0.1 1011510
20:00+25св348249 0.5 101080
18 июня, пт
пт1823:00+18з51096100 2.2 1014267
02:00+17юз3795100 5.3 1014225
05:00+17в3597100 2.8 1014136
08:00+19всв229299 2.8 1014149
11:00+23с117636 0.1 1014591
14:00+25сз226712 1.4 1014895
17:00+26з3367100 0.1 1014935
20:00+23зюз238636 0.9 101447
19 июня, сб
сб1923:00+19ю228847 0.4 101517
02:00+17ююв11872 0.9 101512
05:00+16юв118797 0.1 101611
08:00+20всв1286100 0.1 101593
11:00+23св3477100 0.0 1014471
14:00+28всв4560100 0.0 10121050
17:00+29всв456561 0.0 1010660
20:00+26юв1178100 0.0 101031